Zurück zum Katalog

STARLINK-1199

AktivKommunikationVLEO
NORAD 45201·PAYLOAD·🇺🇸 United States

Gestartet Feb 17, 2020 von Cape Canaveral Space Force Station

Loading…

Nächste Überflüge (nächste 24 Stunden)

TLE

AktuellSource: CelesTrak SupGP

Epoche: Sep 15, 2026, 01:18 UTC

1 45201C 20012Z   26258.05465278  .00015959  00000+0  35418-3 0  2587
2 45201  53.1515 216.9598 0001504  74.7440 299.1519 15.43127996    14

Verfolge STARLINK-1199 in Echtzeit mit AllMySat

Download on the App Store